Date String (YYYY-MM-DD hh:mm:ss) UTC,Instrument flags,Ambient pressure (hPa),Sample flow (lpm),Bypass flow (lpm),Sample temperature (°C),Ambient temperature (°C),ASC tube jacket temperature (°C),LED temperature (°C),Box temperature (°C),Sample RH (%),Span deviation,Mass concentration (μg/m³),Mass concentration (μg/m³),Mass concentration (μg/m³)
DateTimeUTC,F1_M11,P_M11,Q1_M11,Q2_M11,T1_M11,T2_M11,T3_M11,T4_M11,T5_M11,U1_M11,ZSPAN_M11,X0_M11,X2_M11,X1_M11
2021-12-30 10:00:00,,0813.0,5.01,0.00,22.0,22.6,00.0,31.0,23.8,09.7,0000.0,0001.68,0000.68,0000.43
2021-12-30 10:01:00,,0812.9,5.00,0.00,22.0,22.2,00.0,31.0,23.6,09.5,0000.0,0002.04,0000.75,0000.46
2021-12-30 10:02:00,,0812.9,5.00,0.00,21.9,22.0,00.0,31.0,23.6,09.4,0000.0,0004.36,0000.90,0000.53
2021-12-30 10:03:00,,0812.9,5.01,0.00,21.9,21.7,00.0,31.0,23.5,09.4,0000.0,0005.03,0001.02,0000.59
2021-12-30 10:04:00,,0812.8,5.00,0.00,21.8,21.5,00.0,31.0,23.4,09.4,0000.0,0005.35,0001.06,0000.64
2021-12-30 10:05:00,,0812.8,5.00,0.00,21.8,21.4,00.0,31.0,23.4,09.2,0000.0,0006.04,0001.17,0000.73
2021-12-30 10:06:00,,0812.8,5.00,0.00,21.8,21.3,00.0,30.9,23.3,09.4,0000.0,0006.37,0001.26,0000.78
2021-12-30 10:07:00,,0812.8,5.00,0.00,21.7,21.1,00.0,30.9,23.3,09.5,0000.0,0006.93,0001.36,0000.84
2021-12-30 10:08:00,,0812.8,5.01,0.00,21.7,21.0,00.0,30.9,23.2,09.6,0000.0,0007.17,0001.46,0000.88
2021-12-30 10:09:00,,0812.9,4.99,0.00,21.6,20.9,00.0,30.9,23.1,09.5,0000.0,0007.34,0001.54,0000.93
2021-12-30 10:10:00,,0812.8,5.00,0.00,21.6,20.8,00.0,30.8,23.0,09.3,0000.0,0007.63,0001.70,0001.04
2021-12-30 10:11:00,,0812.8,5.00,0.00,21.6,21.5,00.0,30.8,23.2,09.3,0000.0,0007.89,0001.85,0001.12
2021-12-30 10:12:00,,0812.8,5.00,0.00,21.8,22.5,00.0,30.9,23.6,09.2,0000.0,0008.86,0002.05,0001.21
2021-12-30 10:13:00,,0812.7,5.01,0.00,22.0,23.1,00.0,30.9,23.9,09.1,0000.0,0008.36,0002.09,0001.22
2021-12-30 10:14:00,,0812.8,5.00,0.00,22.0,22.8,00.0,30.9,23.9,09.1,0000.0,0007.91,0002.15,0001.26
2021-12-30 10:15:00,,0812.7,5.00,0.00,22.0,22.5,00.0,30.9,23.8,09.0,0000.0,0008.06,0002.27,0001.29
2021-12-30 10:16:00,,0812.8,5.01,0.00,22.0,22.2,00.0,31.0,23.7,09.0,0000.0,0007.76,0002.33,0001.29
2021-12-30 10:17:00,,0812.8,4.99,0.00,21.9,21.9,00.0,30.9,23.5,09.0,0000.0,0007.67,0002.34,0001.29
2021-12-30 10:18:00,,0812.7,5.01,0.00,21.9,21.7,00.0,30.9,23.4,09.0,0000.0,0007.40,0002.35,0001.31
2021-12-30 10:19:00,,0812.8,4.99,0.00,21.8,21.4,00.0,30.9,23.3,09.0,0000.0,0007.73,0002.41,0001.37
2021-12-30 10:20:00,,0812.8,4.99,0.00,21.8,21.3,00.0,30.9,23.3,09.0,0000.0,0008.08,0002.49,0001.43
2021-12-30 10:21:00,,0812.8,5.01,0.00,21.7,21.1,00.0,30.9,23.2,09.0,0000.0,0008.00,0002.44,0001.39
2021-12-30 10:22:00,,0812.7,4.99,0.00,21.7,21.0,00.0,30.9,23.1,09.0,0000.0,0007.76,0002.38,0001.39
2021-12-30 10:23:00,,0812.7,5.00,0.00,21.6,21.0,00.0,30.8,23.2,09.0,0000.0,0006.43,0002.28,0001.39
2021-12-30 10:24:00,,0812.7,5.00,0.00,21.6,20.9,00.0,30.8,23.2,09.0,0000.0,0006.02,0002.21,0001.39
2021-12-30 10:25:00,,0812.7,4.99,0.00,21.6,20.9,00.0,30.8,23.1,09.0,0000.0,0005.74,0002.14,0001.38
2021-12-30 10:26:00,,0812.7,5.01,0.00,21.6,20.9,00.0,30.8,23.1,09.0,0000.0,0006.25,0002.06,0001.38
2021-12-30 10:27:00,,0812.7,5.00,0.00,21.6,21.5,00.0,30.8,23.3,09.1,0000.0,0007.16,0001.98,0001.38
2021-12-30 10:28:00,,0812.7,5.00,0.00,21.8,22.4,00.0,30.8,23.7,09.0,0000.0,0007.20,0002.00,0001.37
2021-12-30 10:29:00,,0812.7,4.98,0.00,22.0,23.0,00.0,30.9,23.9,09.0,0000.0,0007.27,0002.01,0001.35
2021-12-30 10:30:00,,0812.6,5.01,0.00,22.0,22.8,00.0,30.9,23.9,08.9,0000.0,0006.54,0001.97,0001.31
2021-12-30 10:31:00,,0812.6,4.99,0.00,22.0,22.4,00.0,30.9,23.7,08.8,0000.0,0006.13,0002.00,0001.30
2021-12-30 10:32:00,,0812.6,5.00,0.00,21.9,22.1,00.0,30.9,23.6,08.8,0000.0,0006.17,0002.07,0001.33
2021-12-30 10:33:00,,0812.6,5.01,0.00,21.9,21.8,00.0,30.9,23.6,08.7,0000.0,0006.26,0002.14,0001.37
2021-12-30 10:34:00,,0812.6,5.00,0.00,21.9,21.6,00.0,30.9,23.5,08.6,0000.0,0006.38,0002.18,0001.39
2021-12-30 10:35:00,,0812.7,4.98,0.00,21.8,21.5,00.0,30.9,23.4,08.6,0000.0,0006.33,0002.21,0001.41
2021-12-30 10:36:00,,0812.7,5.01,0.00,21.8,21.4,00.0,30.9,23.3,08.4,0000.0,0006.40,0002.27,0001.42
2021-12-30 10:37:00,,0812.6,4.99,0.00,21.8,21.3,00.0,30.9,23.3,08.3,0000.0,0006.21,0002.36,0001.43
2021-12-30 10:38:00,,0812.6,5.01,0.00,21.7,21.1,00.0,30.8,23.2,08.3,0000.0,0004.91,0002.47,0001.47
2021-12-30 10:39:00,,0812.6,5.00,0.00,21.7,21.1,00.0,30.8,23.2,08.2,0000.0,0005.02,0002.52,0001.49
2021-12-30 10:40:00,,0812.6,5.01,0.00,21.6,21.0,00.0,30.8,23.2,08.2,0000.0,0005.07,0002.55,0001.51
2021-12-30 10:41:00,,0812.5,5.01,0.00,21.6,21.0,00.0,30.8,23.2,08.1,0000.0,0005.23,0002.66,0001.54
2021-12-30 10:42:00,,0812.5,5.00,0.00,21.6,20.9,00.0,30.8,23.2,08.0,0000.0,0005.13,0002.61,0001.52
2021-12-30 10:43:00,,0812.5,4.99,0.00,21.6,20.9,00.0,30.8,23.2,08.0,0000.0,0004.91,0002.53,0001.48
2021-12-30 10:44:00,,0812.6,5.01,0.00,21.6,21.5,00.0,30.8,23.3,08.0,0000.0,0004.90,0002.44,0001.42
2021-12-30 10:45:00,,0812.7,5.00,0.00,21.8,22.4,00.0,30.8,23.7,08.0,0000.0,0005.26,0002.37,0001.37
2021-12-30 10:46:00,,0812.7,5.00,0.00,22.0,23.1,00.0,30.9,24.0,08.0,0000.0,0005.99,0002.35,0001.35
2021-12-30 10:47:00,,0812.7,5.00,0.00,22.1,22.9,00.0,30.9,24.0,08.0,0000.0,0006.26,0002.31,0001.32
2021-12-30 10:48:00,,0812.6,4.99,0.00,22.0,22.6,00.0,30.9,23.8,08.0,0000.0,0006.30,0002.26,0001.32
2021-12-30 10:49:00,,0812.6,5.00,0.00,22.0,22.3,00.0,30.9,23.7,08.0,0000.0,0006.22,0002.21,0001.31
2021-12-30 10:50:00,,0812.6,5.00,0.00,22.0,22.0,00.0,30.9,23.6,08.1,0000.0,0006.17,0002.19,0001.32
2021-12-30 10:51:00,,0812.6,5.00,0.00,21.9,21.8,00.0,30.9,23.6,08.1,0000.0,0006.14,0002.20,0001.35
2021-12-30 10:52:00,,0812.6,5.01,0.00,21.9,21.6,00.0,30.9,23.5,08.1,0000.0,0006.23,0002.19,0001.38
2021-12-30 10:53:00,,0812.6,5.00,0.00,21.9,21.5,00.0,30.9,23.5,08.1,0000.0,0006.49,0002.20,0001.41
2021-12-30 10:54:00,,0812.6,5.00,0.00,21.8,21.4,00.0,30.9,23.4,08.1,0000.0,0006.73,0002.22,0001.45
2021-12-30 10:55:00,,0812.5,5.00,0.00,21.8,21.2,00.0,30.9,23.3,08.2,0000.0,0006.54,0002.21,0001.46
2021-12-30 10:56:00,,0812.5,5.00,0.00,21.7,21.1,00.0,30.9,23.3,08.3,0000.0,0005.86,0002.21,0001.48
2021-12-30 10:57:00,,0812.6,5.01,0.00,21.7,21.1,00.0,30.9,23.2,08.3,0000.0,0005.24,0002.21,0001.49
2021-12-30 10:58:00,,0812.6,4.99,0.00,21.7,21.0,00.0,30.8,23.2,08.3,0000.0,0004.75,0002.18,0001.48
2021-12-30 10:59:00,,0812.5,5.00,0.00,21.7,21.0,00.0,30.8,23.2,08.3,0000.0,0004.50,0002.13,0001.47
